User: anonymous   Login
Location: ??
(35.5052°N, 139.7262°E)
Time: 20:17:59
(UTC+00:00)
Language:

S3M - Orbit

View from above orbital plane
View from above orbital plane
View from above satellite
View from above satellite

Ground track
Ground track

The orbit data is extracted from the following two-line orbital elements,

1 12508U 81053B   21270.44313619  .00000052  00000-0  36980-4 0  9993
2 12508  82.9568  65.1016 0038051 152.8356 207.4803 13.76377625 30275
Epoch (UTC): 27 September 2021 10:38:06
Eccentricity: 0.0038051
inclination: 82.9568°
perigee height: 949 km
apogee height: 1005 km
right ascension of ascending node: 65.1016°
argument of perigee: 152.8356°
revolutions per day: 13.76377625
mean anomaly at epoch: 207.4803°
orbit number at epoch: 3027

The dashed part of the orbit path shows where the satellite is in the earth's shadow,  

DLR